Regional Weather Roundup
Issued by NWS Newport/Morehead, NC

Current Version | Previous Version | Graphics & Text | Print | Product List | Glossary Off
Versions: 1 2 3 4 5 6 7 8 9 10 11 12 13 14 15 16 17 18 19 20 21 22 23 24 25 26 27 28 29 30 31 32 33 34 35 36 37 38 39 40 41 42 43 44 45 46 47 48 49 50

000
ASUS42 KMHX 070013
RWRMHX
WEATHER ROUNDUP FOR EASTERN NORTH CAROLINA
NATIONAL WEATHER SERVICE NEWPORT/MOREHEAD CITY NC
700 PM EST SAT FEB 06 2016

NOTE: "FAIR" INDICATES FEW OR NO CLOUDS BELOW 12,000 FEET
WITH NO SIGNIFICANT WEATHER AND/OR OBSTRUCTIONS TO VISIBILITY

NCZ015>017-031-032-045>047-102-103-070100-
NORTH COAST

CITY           SKY/WX    TMP DP  RH WIND       PRES   REMARKS
EDENTON        CLOUDY    42  33  71 E6        30.35S
ELIZABETH CITY CLEAR     38  30  73 E6        30.35S
KITTY HAWK     CLOUDY    42  32  67 N5        30.33S
MANTEO         CLOUDY    42  33  69 NE8       30.35R

$$

NCZ045>047-081-094-103-104-070100-
CENTRAL COAST

CITY           SKY/WX    TMP DP  RH WIND       PRES   REMARKS
FRISCO         CLOUDY    45  35  68 N10G22    30.30R
SWANQUARTER      N/A     43 N/A N/A N6        30.30S

$$

NCZ095-097-098-100-101-070100-
SOUTHERN COAST

CITY           SKY/WX    TMP DP  RH WIND       PRES   REMARKS
BEAUFORT       CLOUDY    44  35  70 NE10G18   30.29F
CEDAR ISLAND     N/A     45 N/A N/A N13G22    30.36S
JACKSONVILLE   CLOUDY    46  29  51 NE9       30.29F
PINEY ISLAND   CLOUDY   N/A N/A N/A MISG      30.30F
WILMINGTON     LGT RAIN  44  34  67 N10       30.26F


$$

NCZ011>013-027>030-043-044-078>080-089-090>093-098-070100-
COASTAL PLAIN

CITY           SKY/WX    TMP DP  RH WIND       PRES   REMARKS
AHOSKIE        CLEAR     35  28  77 CALM      30.34S
CLINTON        CLOUDY    45  29  53 CALM      30.31S
ELIZABETHTOWN  CLOUDY    46  26  46 CALM      30.29S
GOLDSBORO      MOCLDY    45  23  42 N6        30.29F
GREENVILLE     CLOUDY    41  28  60 CALM      30.34R
HAVELOCK       CLOUDY    45  31  58 N12       30.31F
KENANSVILLE      N/A     44  28  53 CALM      30.32F
KINSTON        CLOUDY    45  28  53 N3        30.32F
NEW BERN       CLOUDY    44  30  57 NE8       30.32F
RICHLANDS      CLOUDY    45  27  49 N6        30.31S
ROCKY MOUNT    CLEAR     35  28  75 CALM      30.33S
WASHINGTON     CLOUDY    42  28  57 CALM      30.33S
WHITEVILLE     CLOUDY    46  25  43 NE6       30.28R

$$

AMZ130-135-150-152-154-156-158-170-250-252-270-ANZ085-086-088-633-658-670-070100-
MARINE OBSERVATIONS

STATION/POSITION TIME  TEMP    WIND        PRES    WAVE   SWELL
                       AIR SEA DIR/SP/G            HT/PER HT/PER
                 (UTC) (F)     (DEG/KT/KT) (MB)    (FT/S) (FT/S)
CHESAPEAKE LIGHT 0000   40      80/  3/  3 1028.3
64 E VA BEACH    2350   44 53  360/ 12/ 14 1026.8    4/10   3/10
DUCK             2300   42 45   30/  9/ 11 1026.8
2 E DUCK         2311      45                N/A     4/10   2/13
OREGON INLET     2300   43 47   10/  7/ 12 1026.7
13E OREGON INLT  0000      46                N/A     5/11   3/11
HATTERAS CG      2300   45 52   20/ 16/ 18 1025.5
DIAMOND BUOY     2350   53 71   20/ 19/ 23 1024.6    6/10   5/10
CAPE LOOKOUT     NOT AVBL
BEAUFORT LAB     2300   44 50   20/  9/ 12 1025.1
30 SE NEW RVR IN 2308   50 65              1023.1
30 SE NEW RVR IN 2325      65                N/A     5/12   2/12
27 SE WRIGHTSVLE 2308   52 69  360/ 19/ 25 1023.5
5 SE WRIGHTSVLE  2308   48 53   40/ 16/ 21 1024.9
225 S CAPE HAT   2350   61 69   70/ 14/ 16   N/A     8/11   7/11
41 SE CHARLESTON 2350   54 64   20/ 25/ 29 1020.3    7/ 7   3/ 9

$$



USA.gov is the U.S. government's official web portal to all federal, state and local government web resources and services.